Weather History for Wink, TX

Change the Weather History Date:

Tuesday, September 4, 2012

  Actual Average Record
Temperature  
Mean Temperature 88 °F -  
Max Temperature 104 °F 91 °F 104 °F (2012)
Min Temperature 73 °F 64 °F 50 °F (1984)
Cooling Degree Days 22    
Growing Degree Days 38 (Base 50)    
Moisture  
Dew Point 55 °F    
Average Humidity 34    
Maximum Humidity 59    
Minimum Humidity 16    
Precipitation  
Precipitation 0.00 in - - ()
Sea Level Pressure  
Sea Level Pressure 29.76 in    
Wind  
Wind Speed 7 mph (SSE)    
Max Wind Speed 12 mph    
Max Gust Speed -    
Visibility 10 miles    
Events Rain    
Averages and records for this station are not official NWS values.
T = Trace of Precipitation, MM = Missing Value Source: NWS Daily Summary

Daily Weather History Graph

Daily Weather History Graph

Search for Another Location

Airport:

Trip Planner

Search our weather history database for the weather conditions in past years. The results will help you decide how hot, cold, wet, or windy it might be!

Date:

Astronomy

Sep. 04, 2012 Rise Set
Actual Time 7:30 AM CDT 8:12 PM CDT
Civil Twilight 7:05 AM CDT 8:36 PM CDT
Nautical Twilight 6:36 AM CDT 9:05 PM CDT
Astronomical Twilight 6:06 AM CDT 9:35 PM CDT
Moon 10:27 PM CDT (9/4) 11:19 AM CDT (9/4)
Length of Visible Light 13h 31m
Length of Day
12h 41m
Waning Gibbous, 83% of the Moon is Illuminated
Sep 4
Waning Gibbous
Sep 8
Last Quarter
Sep 15
New
Sep 22
First Quarter
Sep 29
Full

Hourly Weather History & Observations

Time (CDT) Temp. Heat Index Dew Point Humidity Pressure Visibility Wind Dir Wind Speed Gust Speed Precip Events Conditions
12:53 AM 84.0 °F 83.3 °F 57.0 °F 40% 29.79 in 10.0 mi SSE 9.2 mph - N/A   Clear
1:53 AM 82.9 °F 82.8 °F 59.0 °F 44% 29.79 in 10.0 mi SE 9.2 mph - N/A   Clear
2:53 AM 82.0 °F 82.1 °F 59.0 °F 45% 29.78 in 10.0 mi SE 10.4 mph - N/A   Clear
3:53 AM 79.0 °F - 60.1 °F 52% 29.78 in 10.0 mi SE 6.9 mph - N/A   Clear
4:53 AM 77.0 °F - 59.0 °F 54% 29.78 in 10.0 mi SE 8.1 mph - N/A   Clear
5:53 AM 75.9 °F - 59.0 °F 56% 29.77 in 10.0 mi SE 9.2 mph - N/A   Clear
6:53 AM 73.9 °F - 59.0 °F 59% 29.78 in 10.0 mi SE 4.6 mph - N/A   Clear
7:53 AM 73.9 °F - 59.0 °F 59% 29.81 in 10.0 mi SE 6.9 mph - N/A   Clear
8:53 AM 79.0 °F - 59.0 °F 50% 29.82 in 10.0 mi SE 6.9 mph - N/A   Clear
9:53 AM 86.0 °F 85.0 °F 57.9 °F 38% 29.82 in 10.0 mi South 6.9 mph - N/A   Clear
10:53 AM 90.0 °F 88.6 °F 57.0 °F 33% 29.82 in 10.0 mi South 8.1 mph - N/A   Clear
11:53 AM 93.0 °F 91.1 °F 55.0 °F 28% 29.82 in 10.0 mi WSW 4.6 mph - N/A   Clear
12:53 PM 96.1 °F 93.8 °F 54.0 °F 24% 29.79 in 10.0 mi Calm Calm - N/A   Clear
1:53 PM 98.1 °F 95.7 °F 53.1 °F 22% 29.77 in 10.0 mi Calm Calm - N/A   Clear
2:53 PM 100.9 °F - 52.0 °F 19% 29.74 in 10.0 mi ESE 6.9 mph - 0.00 in Rain Light Rain
3:53 PM 102.0 °F - 51.1 °F 18% 29.71 in 10.0 mi Variable 4.6 mph - 0.00 in Rain Light Rain
4:53 PM 102.2 °F - 48.2 °F 16% 29.86 in 10.0 mi SSE 8.1 mph - N/A Rain Light Rain
5:53 PM 102.0 °F - 46.9 °F 16% 29.68 in 10.0 mi Variable 3.5 mph - 0.00 in Rain Light Rain
6:53 PM 102.0 °F - 48.0 °F 16% 29.67 in 10.0 mi WNW 4.6 mph - 0.00 in Rain Light Rain
7:53 PM 99.0 °F - 50.0 °F 19% 29.67 in 10.0 mi SW 5.8 mph - 0.00 in Rain Light Rain
8:53 PM 93.0 °F - 50.0 °F 23% 29.69 in 10.0 mi SSE 6.9 mph - 0.00 in Rain Light Rain
9:53 PM 91.0 °F 88.5 °F 53.1 °F 27% 29.72 in 10.0 mi SSE 8.1 mph - 0.00 in Rain Light Rain
10:53 PM 90.0 °F 88.6 °F 57.0 °F 33% 29.73 in 10.0 mi SSE 11.5 mph - 0.00 in   Clear
11:53 PM 89.1 °F 88.0 °F 57.9 °F 35% 29.73 in 10.0 mi SSE 11.5 mph - 0.00 in   Partly Cloudy